Weather History for Troy, MI

Change the Weather History Date:

Wednesday, February 20, 2013

  Actual Average (KDET) Record (KDET)
Temperature  
Mean Temperature 22 °F -  
Max Temperature 26 °F 36 °F 59 °F (1983)
Min Temperature 19 °F 23 °F 1 °F (1966)
Degree Days  
Heating Degree Days 42    
Moisture  
Dew Point 12 °F    
Average Humidity 62    
Maximum Humidity 77    
Minimum Humidity 51    
Precipitation  
Precipitation 0.00 in - - ()
Sea Level Pressure  
Sea Level Pressure 30.10 in    
Wind  
Wind Speed 13 mph (WNW)    
Max Wind Speed 21 mph    
Max Gust Speed 34 mph    
Visibility 9 miles    
Events Snow    
Averages and records for this station are not official NWS values.
T = Trace of Precipitation, MM = Missing Value Source: NWS Daily Summary

Daily Weather History Graph

Daily Weather History Graph

Search for Another Location

Airport:

Trip Planner

Search our weather history database for the weather conditions in past years. The results will help you decide how hot, cold, wet, or windy it might be!

Date:

Astronomy

Feb. 20, 2013 Rise Set
Actual Time 7:21 AM EST 6:11 PM EST
Civil Twilight 6:53 AM EST 6:40 PM EST
Nautical Twilight 6:20 AM EST 7:12 PM EST
Astronomical Twilight 5:47 AM EST 7:45 PM EST
Moon 1:28 PM EST (2/20) 3:45 AM EST (2/20)
Length of Visible Light 11h 46m
Length of Day
10h 49m
Waxing Gibbous, 76% of the Moon is Illuminated
Feb 20
Waxing Gibbous
Feb 25
Full
Mar 4
Last Quarter
Mar 11
New
Mar 19
First Quarter

Hourly Weather History & Observations

Time (EST) Temp. Windchill Dew Point Humidity Pressure Visibility Wind Dir Wind Speed Gust Speed Precip Events Conditions
12:15 AM 22.1 °F 8.5 °F 12.9 °F 68% 29.92 in 10.0 mi West 16.1 mph 25.3 mph N/A Snow Light Snow
12:34 AM 21.9 °F 7.8 °F 12.9 °F 68% 29.93 in 10.0 mi West 17.3 mph 24.2 mph N/A Snow Light Snow
12:54 AM 21.9 °F 9.2 °F 13.1 °F 69% 29.93 in 10.0 mi West 13.8 mph 19.6 mph N/A Snow Light Snow
1:15 AM 21.9 °F 9.2 °F 12.9 °F 68% 29.94 in 10.0 mi West 13.8 mph 20.7 mph N/A Snow Light Snow
1:34 AM 21.7 °F 9.6 °F 12.9 °F 69% 29.94 in 10.0 mi West 12.7 mph 20.7 mph N/A Snow Light Snow
1:54 AM 21.6 °F 11.3 °F 13.1 °F 70% 29.94 in 10.0 mi West 9.2 mph 20.7 mph N/A Snow Light Snow
2:14 AM 21.2 °F 9.5 °F 13.1 °F 71% 29.95 in 10.0 mi West 11.5 mph 18.4 mph N/A Snow Light Snow
2:34 AM 21.2 °F 10.1 °F 13.5 °F 72% 29.96 in 10.0 mi West 10.4 mph 20.7 mph N/A Snow Light Snow
2:54 AM 21.2 °F 9.5 °F 14.0 °F 74% 29.96 in 5.0 mi West 11.5 mph 17.3 mph N/A Snow Light Snow
3:14 AM 21.6 °F 9.3 °F 14.5 °F 74% 29.96 in 5.0 mi West 12.7 mph 21.9 mph N/A Snow Light Snow
3:34 AM 21.2 °F 9.5 °F 15.1 °F 77% 29.97 in 3.0 mi West 11.5 mph 18.4 mph N/A Snow Light Snow
3:54 AM 21.2 °F 7.8 °F 14.9 °F 77% 29.97 in 5.0 mi West 15.0 mph 20.7 mph N/A Snow Light Snow
4:15 AM 21.2 °F 8.9 °F 14.0 °F 74% 29.97 in 7.0 mi West 12.7 mph 18.4 mph N/A Snow Light Snow
4:34 AM 21.2 °F 8.3 °F 13.1 °F 71% 29.99 in 5.0 mi West 13.8 mph 24.2 mph N/A Snow Light Snow
4:55 AM 20.8 °F 8.4 °F 9.9 °F 63% 30.00 in 5.0 mi WNW 12.7 mph 34.5 mph N/A   Haze
5:14 AM 20.7 °F 4.9 °F 9.0 °F 61% 30.01 in 10.0 mi West 20.7 mph 27.6 mph N/A   Overcast
5:34 AM 19.9 °F 8.6 °F 8.8 °F 62% 30.01 in 10.0 mi West 10.4 mph 17.3 mph N/A   Scattered Clouds
5:54 AM 19.8 °F 9.1 °F 10.4 °F 67% 30.02 in 10.0 mi West 9.2 mph 18.4 mph N/A   Scattered Clouds
6:14 AM 19.9 °F 7.3 °F 11.3 °F 69% 30.03 in 10.0 mi West 12.7 mph 18.4 mph N/A   Overcast
6:35 AM 20.1 °F 7.5 °F 11.7 °F 70% 30.03 in 10.0 mi West 12.7 mph - N/A   Overcast
6:54 AM 20.3 °F 8.3 °F 11.8 °F 70% 30.04 in 10.0 mi West 11.5 mph 18.4 mph N/A   Overcast
7:14 AM 20.3 °F 7.7 °F 11.1 °F 68% 30.04 in 10.0 mi West 12.7 mph 19.6 mph N/A   Overcast
7:34 AM 20.7 °F 8.2 °F 10.4 °F 65% 30.05 in 10.0 mi West 12.7 mph 23.0 mph N/A   Overcast
7:54 AM 20.8 °F 9.0 °F 10.2 °F 64% 30.06 in 10.0 mi WNW 11.5 mph 19.6 mph N/A   Overcast
8:15 AM 20.8 °F 6.4 °F 9.3 °F 61% 30.07 in 10.0 mi WNW 17.3 mph 21.9 mph N/A   Overcast
8:34 AM 21.2 °F 8.3 °F 9.7 °F 61% 30.07 in 10.0 mi West 13.8 mph 21.9 mph N/A   Overcast
8:54 AM 21.2 °F 8.3 °F 9.5 °F 61% 30.08 in 3.0 mi West 13.8 mph 21.9 mph N/A   Haze
9:15 AM 21.7 °F 8.5 °F 10.0 °F 61% 30.08 in 10.0 mi WNW 15.0 mph 20.7 mph N/A   Overcast
9:34 AM 22.1 °F 9.5 °F 10.0 °F 60% 30.08 in 10.0 mi West 13.8 mph 24.2 mph N/A   Overcast
9:54 AM 22.6 °F 11.3 °F 10.4 °F 59% 30.08 in 10.0 mi WNW 11.5 mph 23.0 mph N/A   Overcast
10:15 AM 22.8 °F 9.4 °F 9.1 °F 56% 30.09 in 10.0 mi WNW 16.1 mph 25.3 mph N/A   Overcast
10:34 AM 23.0 °F 11.1 °F 10.6 °F 59% 30.09 in 10.0 mi WNW 12.7 mph 23.0 mph N/A   Overcast
10:54 AM 23.4 °F 9.6 °F 10.8 °F 59% 30.10 in 10.0 mi NW 17.3 mph 23.0 mph N/A   Overcast
11:14 AM 23.9 °F 10.8 °F 9.7 °F 55% 30.10 in 10.0 mi NW 16.1 mph 23.0 mph N/A   Overcast
11:34 AM 23.9 °F 13.5 °F 10.4 °F 56% 30.10 in 10.0 mi WNW 10.4 mph 19.6 mph N/A   Overcast
11:55 AM 24.1 °F 10.6 °F 9.5 °F 54% 30.11 in 10.0 mi WNW 17.3 mph 25.3 mph N/A   Overcast
12:14 PM 24.3 °F 13.3 °F 9.7 °F 54% 30.12 in 10.0 mi WNW 11.5 mph 20.7 mph N/A   Overcast
12:35 PM 24.6 °F 13.2 °F 10.6 °F 55% 30.12 in 10.0 mi WNW 12.7 mph 20.7 mph N/A   Overcast
12:54 PM 24.8 °F 11.1 °F 9.5 °F 52% 30.13 in 10.0 mi WNW 18.4 mph 24.2 mph N/A   Overcast
1:14 PM 25.0 °F 12.2 °F 10.2 °F 54% 30.13 in 10.0 mi NW 16.1 mph 21.9 mph N/A   Overcast
1:35 PM 24.8 °F 12.9 °F 10.4 °F 54% 30.14 in 7.0 mi West 13.8 mph 21.9 mph N/A Snow Light Snow
1:54 PM 24.8 °F 14.0 °F 11.5 °F 57% 30.13 in 7.0 mi West 11.5 mph 20.7 mph N/A Snow Light Snow
2:15 PM 25.5 °F 13.8 °F 9.7 °F 51% 30.14 in 10.0 mi WNW 13.8 mph 25.3 mph N/A   Overcast
2:34 PM 25.3 °F 13.1 °F 11.3 °F 55% 30.15 in 10.0 mi WNW 15.0 mph 19.6 mph N/A   Overcast
2:54 PM 25.7 °F 15.1 °F 10.9 °F 54% 30.15 in 10.0 mi West 11.5 mph 19.6 mph N/A   Overcast
3:15 PM 25.7 °F 14.6 °F 10.6 °F 53% 30.15 in 10.0 mi NW 12.7 mph 17.3 mph N/A   Overcast
3:54 PM 26.1 °F 14.0 °F 11.7 °F 55% 30.16 in 10.0 mi WNW 15.0 mph 20.7 mph N/A   Overcast
4:15 PM 26.2 °F 16.4 °F 11.1 °F 53% 30.17 in 10.0 mi West 10.4 mph 19.6 mph N/A   Overcast
4:34 PM 26.1 °F 13.1 °F 11.3 °F 54% 30.19 in 10.0 mi WNW 17.3 mph 20.7 mph N/A   Overcast
4:54 PM 26.1 °F 16.8 °F 10.8 °F 52% 30.20 in 10.0 mi West 9.2 mph 19.6 mph N/A   Overcast
5:15 PM 26.1 °F 15.6 °F 11.7 °F 55% 30.20 in 10.0 mi West 11.5 mph 17.3 mph N/A   Overcast
5:34 PM 25.9 °F 16.0 °F 12.7 °F 58% 30.21 in 10.0 mi West 10.4 mph - N/A   Overcast
5:54 PM 26.1 °F 15.0 °F 13.1 °F 58% 30.21 in 10.0 mi West 12.7 mph - N/A Snow Light Snow
6:14 PM 25.5 °F 16.2 °F 14.0 °F 62% 30.20 in 10.0 mi WNW 9.2 mph 21.9 mph N/A   Overcast
6:34 PM 25.5 °F 15.5 °F 14.4 °F 63% 30.20 in 10.0 mi West 10.4 mph 16.1 mph N/A   Overcast
6:55 PM 25.5 °F 16.9 °F 14.7 °F 64% 30.20 in 10.0 mi WNW 8.1 mph - N/A   Overcast
7:14 PM 25.7 °F 17.1 °F 15.1 °F 64% 30.20 in 10.0 mi WNW 8.1 mph - N/A   Overcast
7:34 PM 25.7 °F 17.1 °F 14.9 °F 64% 30.20 in 10.0 mi WNW 8.1 mph - N/A   Overcast
7:54 PM 25.9 °F 16.0 °F 15.3 °F 64% 30.20 in 10.0 mi NW 10.4 mph 16.1 mph N/A Snow Light Snow
8:14 PM 26.1 °F 16.2 °F 13.8 °F 60% 30.21 in 10.0 mi WNW 10.4 mph 24.2 mph N/A   Overcast
8:35 PM 26.1 °F 14.0 °F 13.1 °F 58% 30.22 in 10.0 mi WNW 15.0 mph 24.2 mph N/A   Overcast
8:54 PM 25.7 °F 14.0 °F 12.2 °F 57% 30.21 in 10.0 mi NNW 13.8 mph 20.7 mph N/A   Overcast
9:14 PM 25.7 °F 14.6 °F 12.9 °F 58% 30.21 in 10.0 mi NW 12.7 mph 18.4 mph N/A   Overcast
9:34 PM 25.7 °F 14.6 °F 13.5 °F 60% 30.21 in 10.0 mi NNW 12.7 mph 19.6 mph N/A   Overcast
9:54 PM 25.5 °F 16.9 °F 14.0 °F 62% 30.22 in 10.0 mi NW 8.1 mph 16.1 mph N/A Snow Light Snow
10:14 PM 25.3 °F 13.1 °F 14.5 °F 64% 30.23 in 7.0 mi NW 15.0 mph 19.6 mph N/A Snow Light Snow
10:34 PM 25.2 °F 15.7 °F 14.5 °F 64% 30.23 in 10.0 mi NW 9.2 mph 18.4 mph N/A Snow Light Snow
10:54 PM 24.8 °F 16.1 °F 14.4 °F 65% 30.22 in 10.0 mi NNW 8.1 mph - N/A Snow Light Snow
11:14 PM 24.8 °F 11.9 °F 14.4 °F 65% 30.23 in 10.0 mi NNW 16.1 mph 19.6 mph N/A Snow Light Snow
11:54 PM 24.8 °F 16.9 °F 15.1 °F 67% 30.23 in 10.0 mi NNW 6.9 mph - N/A Snow Light Snow